User: anonymous   Login
Location: Unspecified
(0.0000°N, 0.0000°E)
Time: 11:08:36
(UTC+00:00)
Language:

CZ-11 R/B - Orbit

View from above orbital plane
View from above orbital plane
View from above satellite
View from above satellite

Ground track
Ground track

The orbit data is extracted from the following two-line orbital elements,

1 41847U 16066G   21015.76209063  .00000064  00000-0  20728-4 0  9998
2 41847  98.6254  74.0844 0364613 316.1570  41.1196 14.38136202219939
Epoch (UTC): 15 January 2021 18:17:24
Eccentricity: 0.0364613
inclination: 98.6254°
perigee height: 504 km
apogee height: 1025 km
right ascension of ascending node: 74.0844°
argument of perigee: 316.1570°
revolutions per day: 14.38136202
mean anomaly at epoch: 41.1196°
orbit number at epoch: 21993

The dashed part of the orbit path shows where the satellite is in the earth's shadow,  

DLR